BAW843 EPWA-EGLL

Flight info

Callsign BAW843
Flight time 2h 10m
Altitude 38000
Route LOLSI DCT DIBLO DCT INDIG DCT SUBIX DCT HLZ DCT ABNED L980 LOGAN
Aircraft A20N/M-SDE2E3FGHIRWXY/LB1

Departure

Time 2026-05-06 13:43
Airport Warsaw Chopin Airport (EPWA)

Arrival

Time 2026-05-06 15:54
Airport London Heathrow Airport (EGLL)
Time Latitude Longitude Altitude Speed Heading
2026-05-06 13:28 52.17410 20.97021 334 ft 0 kts 242°
2026-05-06 13:34 52.17411 20.97025 334 ft 2 kts 238°
2026-05-06 13:34 52.17419 20.97049 333 ft 2 kts 242°
2026-05-06 13:34 52.17428 20.97072 336 ft 2 kts 238°
2026-05-06 13:35 52.17436 20.97105 336 ft 2 kts 300°
2026-05-06 13:35 52.17428 20.97117 337 ft 2 kts 334°
2026-05-06 13:35 52.17415 20.97129 334 ft 1 kts 333°
2026-05-06 13:35 52.17413 20.97130 333 ft 0 kts 333°
2026-05-06 13:37 52.17417 20.97127 334 ft 4 kts 333°
2026-05-06 13:38 52.17474 20.97077 338 ft 12 kts 332°
2026-05-06 13:38 52.17562 20.97000 338 ft 16 kts 332°
2026-05-06 13:38 52.17612 20.96886 336 ft 11 kts 251°
2026-05-06 13:38 52.17578 20.96766 336 ft 12 kts 239°
2026-05-06 13:39 52.17533 20.96645 337 ft 13 kts 239°
2026-05-06 13:39 52.17478 20.96528 335 ft 14 kts 240°
2026-05-06 13:39 52.17410 20.96391 338 ft 12 kts 186°
2026-05-06 13:39 52.17331 20.96448 337 ft 14 kts 152°
2026-05-06 13:40 52.17231 20.96535 335 ft 18 kts 152°
2026-05-06 13:40 52.17113 20.96638 338 ft 21 kts 152°
2026-05-06 13:40 52.16971 20.96761 336 ft 25 kts 152°
2026-05-06 13:40 52.16810 20.96899 336 ft 27 kts 153°
2026-05-06 13:41 52.16668 20.97050 337 ft 15 kts 117°
2026-05-06 13:41 52.16618 20.97215 338 ft 17 kts 114°
2026-05-06 13:41 52.16566 20.97401 337 ft 19 kts 115°
2026-05-06 13:41 52.16508 20.97602 336 ft 20 kts 115°
2026-05-06 13:42 52.16439 20.97795 338 ft 15 kts 159°
2026-05-06 13:42 52.16339 20.97743 334 ft 16 kts 206°
2026-05-06 13:42 52.16314 20.97649 335 ft 8 kts 292°
2026-05-06 13:42 52.16352 20.97504 336 ft 35 kts 294°
2026-05-06 13:43 52.16551 20.96796 337 ft 100 kts 295°
2026-05-06 13:43 52.16913 20.95508 339 ft 148 kts 295°
2026-05-06 13:43 52.17372 20.93919 733 ft 156 kts 290°
2026-05-06 13:43 52.17832 20.92301 1377 ft 156 kts 288°
2026-05-06 13:44 52.18266 20.90701 2041 ft 151 kts 281°
2026-05-06 13:44 52.18296 20.89052 2599 ft 148 kts 258°
2026-05-06 13:44 52.18228 20.87369 3188 ft 149 kts 273°
2026-05-06 13:44 52.18336 20.85698 3735 ft 153 kts 271°
2026-05-06 13:45 52.18431 20.83852 4122 ft 173 kts 270°
2026-05-06 13:45 52.18654 20.79374 4816 ft 225 kts 272°
2026-05-06 13:45 52.18805 20.76714 5321 ft 246 kts 272°
2026-05-06 13:46 52.18972 20.73853 6013 ft 257 kts 272°
2026-05-06 13:46 52.19144 20.70935 6911 ft 260 kts 272°
2026-05-06 13:46 52.19317 20.67986 7844 ft 262 kts 272°
2026-05-06 13:46 52.19489 20.65061 8799 ft 263 kts 272°
2026-05-06 13:47 52.19661 20.62074 9732 ft 266 kts 272°
2026-05-06 13:47 52.19833 20.58998 10275 ft 283 kts 272°
2026-05-06 13:47 52.20016 20.55672 10561 ft 306 kts 272°
2026-05-06 13:47 52.20213 20.52105 10996 ft 321 kts 272°
2026-05-06 13:48 52.20417 20.48460 11763 ft 326 kts 272°
2026-05-06 13:48 52.20486 20.47211 12033 ft 327 kts 272°
2026-05-06 13:48 52.20829 20.40996 13289 ft 336 kts 272°
2026-05-06 13:48 52.20967 20.38466 13761 ft 339 kts 272°
2026-05-06 13:49 52.21465 20.29247 15540 ft 343 kts 271°
2026-05-06 13:49 52.21672 20.25349 16239 ft 346 kts 271°
2026-05-06 13:49 52.21880 20.21412 16921 ft 350 kts 271°
2026-05-06 13:50 52.22088 20.17440 17633 ft 352 kts 271°
2026-05-06 13:50 52.22296 20.13450 18273 ft 355 kts 271°
2026-05-06 13:50 52.22505 20.09415 18845 ft 358 kts 271°
2026-05-06 13:50 52.22714 20.05344 19409 ft 362 kts 271°
2026-05-06 13:51 52.22922 20.01286 19973 ft 365 kts 271°
2026-05-06 13:51 52.23132 19.97132 20542 ft 368 kts 271°
2026-05-06 13:51 52.23343 19.92935 21086 ft 371 kts 271°
2026-05-06 13:51 52.23554 19.88708 21660 ft 374 kts 271°
2026-05-06 13:52 52.23765 19.84455 22206 ft 378 kts 271°
2026-05-06 13:52 52.23973 19.80210 22748 ft 381 kts 271°
2026-05-06 13:52 52.24185 19.75884 23285 ft 384 kts 271°
2026-05-06 13:52 52.24396 19.71528 23788 ft 386 kts 271°
2026-05-06 13:53 52.24607 19.67157 24277 ft 387 kts 271°
2026-05-06 13:53 52.24817 19.62761 24755 ft 389 kts 270°
2026-05-06 13:53 52.25026 19.58354 25222 ft 390 kts 270°
2026-05-06 13:53 52.25235 19.53925 25702 ft 392 kts 270°
2026-05-06 13:54 52.25439 19.49534 26134 ft 394 kts 270°
2026-05-06 13:54 52.25646 19.45061 26575 ft 395 kts 270°
2026-05-06 13:54 52.25852 19.40582 27007 ft 397 kts 269°
2026-05-06 13:54 52.26057 19.36073 27437 ft 398 kts 269°
2026-05-06 13:55 52.26261 19.31551 27839 ft 400 kts 269°
2026-05-06 13:55 52.26464 19.27015 28239 ft 401 kts 269°
2026-05-06 13:55 52.26666 19.22452 28614 ft 403 kts 269°
2026-05-06 13:55 52.26867 19.17880 28979 ft 405 kts 269°
2026-05-06 13:56 52.27067 19.13292 29338 ft 406 kts 269°
2026-05-06 13:56 52.27267 19.08672 29694 ft 408 kts 268°
2026-05-06 13:56 52.27462 19.04103 30005 ft 409 kts 268°
2026-05-06 13:56 52.27659 18.99459 30322 ft 410 kts 268°
2026-05-06 13:57 52.27855 18.94784 30640 ft 412 kts 268°
2026-05-06 13:57 52.28048 18.90119 30970 ft 412 kts 268°
2026-05-06 13:57 52.28241 18.85453 31381 ft 411 kts 269°
2026-05-06 13:57 52.28431 18.80809 31788 ft 409 kts 269°
2026-05-06 13:58 52.28618 18.76180 32199 ft 407 kts 269°
2026-05-06 13:58 52.28803 18.71567 32594 ft 406 kts 269°
2026-05-06 13:58 52.28984 18.66967 32988 ft 404 kts 269°
2026-05-06 13:58 52.29163 18.62382 33363 ft 403 kts 269°
2026-05-06 13:59 52.29337 18.57869 33739 ft 401 kts 269°
2026-05-06 13:59 52.29511 18.53303 34004 ft 401 kts 269°
2026-05-06 13:59 52.29683 18.48742 34211 ft 402 kts 269°
2026-05-06 13:59 52.29853 18.44181 34422 ft 403 kts 269°
2026-05-06 14:00 52.30022 18.39618 34641 ft 403 kts 269°
2026-05-06 14:00 52.30188 18.35100 34828 ft 404 kts 269°
2026-05-06 14:00 52.30354 18.30517 35024 ft 405 kts 269°
2026-05-06 14:00 52.30520 18.25922 35206 ft 405 kts 269°
2026-05-06 14:01 52.30684 18.21314 35399 ft 406 kts 269°
2026-05-06 14:01 52.30846 18.16704 35579 ft 407 kts 269°
2026-05-06 14:01 52.31007 18.12082 35755 ft 407 kts 269°
2026-05-06 14:01 52.31166 18.07453 35933 ft 408 kts 269°
2026-05-06 14:02 52.31324 18.02818 36108 ft 409 kts 269°
2026-05-06 14:02 52.31481 17.98169 36276 ft 409 kts 269°
2026-05-06 14:02 52.31633 17.93582 36433 ft 410 kts 269°
2026-05-06 14:02 52.31787 17.88916 36591 ft 410 kts 269°
2026-05-06 14:03 52.31938 17.84258 36758 ft 411 kts 269°
2026-05-06 14:03 52.32088 17.79585 36899 ft 411 kts 269°
2026-05-06 14:03 52.32236 17.74908 37040 ft 412 kts 269°
2026-05-06 14:03 52.32383 17.70207 37174 ft 413 kts 269°
2026-05-06 14:04 52.32528 17.65516 37314 ft 413 kts 269°
2026-05-06 14:04 52.32670 17.60885 37445 ft 414 kts 269°
2026-05-06 14:04 52.32811 17.56186 37572 ft 414 kts 269°
2026-05-06 14:04 52.32951 17.51487 37694 ft 415 kts 269°
2026-05-06 14:05 52.33226 17.42043 37735 ft 415 kts 269°
2026-05-06 14:05 52.33494 17.32623 37741 ft 415 kts 269°
2026-05-06 14:06 52.33753 17.23195 37749 ft 416 kts 269°
2026-05-06 14:06 52.34006 17.13725 37756 ft 416 kts 269°
2026-05-06 14:07 52.34250 17.04328 37766 ft 416 kts 269°
2026-05-06 14:07 52.34488 16.94862 37772 ft 417 kts 269°
2026-05-06 14:08 52.34719 16.85380 37772 ft 417 kts 269°
2026-05-06 14:08 52.34942 16.75883 37771 ft 418 kts 268°
2026-05-06 14:09 52.35158 16.66375 37773 ft 418 kts 268°
2026-05-06 14:09 52.35367 16.56855 37772 ft 419 kts 268°
2026-05-06 14:10 52.35567 16.47391 37775 ft 419 kts 268°
2026-05-06 14:10 52.35761 16.37872 37771 ft 419 kts 268°
2026-05-06 14:11 52.35947 16.28336 37774 ft 419 kts 268°
2026-05-06 14:11 52.36125 16.18796 37790 ft 419 kts 268°
2026-05-06 14:12 52.36296 16.09263 37779 ft 419 kts 268°
2026-05-06 14:12 52.36458 15.99787 37789 ft 419 kts 268°
2026-05-06 14:13 52.36589 15.91793 37792 ft 419 kts 268°
2026-05-06 14:13 52.36737 15.82304 37783 ft 419 kts 268°
2026-05-06 14:14 52.36878 15.72774 37799 ft 419 kts 268°
2026-05-06 14:14 52.37012 15.63245 37788 ft 418 kts 268°
2026-05-06 14:15 52.37137 15.53729 37791 ft 418 kts 268°
2026-05-06 14:15 52.37256 15.44208 37794 ft 418 kts 268°
2026-05-06 14:16 52.37366 15.34753 37796 ft 418 kts 268°
2026-05-06 14:16 52.37450 15.25235 37800 ft 418 kts 267°
2026-05-06 14:17 52.37493 15.15720 37794 ft 418 kts 267°
2026-05-06 14:17 52.37552 15.06248 37791 ft 418 kts 267°
2026-05-06 14:18 52.37615 14.96737 37792 ft 418 kts 267°
2026-05-06 14:18 52.37671 14.87207 37795 ft 419 kts 267°
2026-05-06 14:19 52.37720 14.77666 37790 ft 419 kts 267°
2026-05-06 14:19 52.37761 14.68099 37789 ft 419 kts 267°
2026-05-06 14:20 52.37791 14.58598 37791 ft 420 kts 266°
2026-05-06 14:20 52.37810 14.49035 37794 ft 420 kts 266°
2026-05-06 14:21 52.37820 14.39461 37791 ft 421 kts 266°
2026-05-06 14:21 52.37823 14.29853 37792 ft 422 kts 266°
2026-05-06 14:22 52.37817 14.20291 37797 ft 422 kts 266°
2026-05-06 14:22 52.37803 14.10655 37804 ft 423 kts 266°
2026-05-06 14:23 52.37781 14.00991 37810 ft 424 kts 266°
2026-05-06 14:23 52.37753 13.91335 37820 ft 425 kts 266°
2026-05-06 14:24 52.37716 13.81664 37821 ft 425 kts 266°
2026-05-06 14:24 52.37671 13.71988 37829 ft 425 kts 266°
2026-05-06 14:25 52.37619 13.62353 37835 ft 426 kts 266°
2026-05-06 14:25 52.37557 13.52629 37833 ft 426 kts 266°
2026-05-06 14:26 52.37489 13.42979 37834 ft 426 kts 266°
2026-05-06 14:26 52.37412 13.33260 37832 ft 426 kts 265°
2026-05-06 14:27 52.37327 13.23543 37821 ft 426 kts 265°
2026-05-06 14:27 52.37234 13.13884 37817 ft 427 kts 265°
2026-05-06 14:28 52.37133 13.04170 37808 ft 427 kts 265°
2026-05-06 14:28 52.37024 12.94451 37797 ft 427 kts 265°
2026-05-06 14:29 52.36908 12.84730 37800 ft 427 kts 265°
2026-05-06 14:29 52.36783 12.75051 37796 ft 427 kts 265°
2026-05-06 14:30 52.36650 12.65330 37800 ft 427 kts 265°
2026-05-06 14:30 52.36509 12.55587 37802 ft 427 kts 265°
2026-05-06 14:31 52.36361 12.45910 37801 ft 427 kts 265°
2026-05-06 14:31 52.36204 12.36164 37807 ft 428 kts 265°
2026-05-06 14:32 52.36039 12.26415 37811 ft 428 kts 265°
2026-05-06 14:32 52.35867 12.16729 37807 ft 428 kts 265°
2026-05-06 14:33 52.35685 12.06974 37808 ft 429 kts 265°
2026-05-06 14:33 52.35495 11.97181 37805 ft 429 kts 265°
2026-05-06 14:34 52.35298 11.87470 37810 ft 429 kts 265°
2026-05-06 14:34 52.35092 11.77696 37802 ft 429 kts 265°
2026-05-06 14:35 52.34878 11.67933 37798 ft 429 kts 265°
2026-05-06 14:35 52.34658 11.58228 37798 ft 429 kts 265°
2026-05-06 14:36 52.34428 11.48474 37795 ft 429 kts 265°
2026-05-06 14:36 52.34190 11.38712 37792 ft 429 kts 264°
2026-05-06 14:37 52.33945 11.28968 37790 ft 428 kts 264°
2026-05-06 14:37 52.33691 11.19214 37784 ft 428 kts 264°
2026-05-06 14:38 52.33431 11.09547 37787 ft 428 kts 264°
2026-05-06 14:38 52.33162 10.99800 37787 ft 428 kts 264°
2026-05-06 14:39 52.32884 10.90063 37789 ft 429 kts 264°
2026-05-06 14:39 52.32598 10.80310 37792 ft 429 kts 264°
2026-05-06 14:40 52.32304 10.70563 37794 ft 429 kts 264°
2026-05-06 14:40 52.32003 10.60862 37798 ft 430 kts 264°
2026-05-06 14:41 52.31693 10.51086 37804 ft 431 kts 264°
2026-05-06 14:41 52.31374 10.41301 37805 ft 431 kts 264°
2026-05-06 14:42 52.31046 10.31506 37805 ft 431 kts 264°
2026-05-06 14:42 52.30710 10.21717 37807 ft 431 kts 264°
2026-05-06 14:43 52.30366 10.11945 37810 ft 431 kts 264°
2026-05-06 14:43 52.30017 10.02231 37821 ft 431 kts 264°
2026-05-06 14:44 52.29660 9.92542 37829 ft 431 kts 264°
2026-05-06 14:45 52.29106 9.77879 37837 ft 430 kts 264°
2026-05-06 14:45 52.28727 9.68127 37837 ft 430 kts 264°
2026-05-06 14:46 52.28339 9.58366 37831 ft 430 kts 264°
2026-05-06 14:46 52.27947 9.48677 37821 ft 430 kts 264°
2026-05-06 14:47 52.27545 9.38939 37822 ft 429 kts 264°
2026-05-06 14:47 52.27134 9.29203 37829 ft 429 kts 263°
2026-05-06 14:48 52.26716 9.19489 37825 ft 428 kts 263°
2026-05-06 14:48 52.26289 9.09771 37827 ft 430 kts 263°
2026-05-06 14:49 52.25855 9.00029 37828 ft 430 kts 263°
2026-05-06 14:49 52.25415 8.90362 37832 ft 430 kts 263°
2026-05-06 14:50 52.24963 8.80616 37827 ft 431 kts 263°
2026-05-06 14:50 52.24503 8.70862 37836 ft 431 kts 263°
2026-05-06 14:51 52.24035 8.61103 37838 ft 431 kts 263°
2026-05-06 14:51 52.23557 8.51318 37842 ft 433 kts 263°
2026-05-06 14:52 52.23076 8.41620 37842 ft 430 kts 263°
2026-05-06 14:52 52.22583 8.31865 37842 ft 431 kts 263°
2026-05-06 14:53 52.22083 8.22105 37846 ft 431 kts 263°
2026-05-06 14:53 52.21574 8.12353 37851 ft 431 kts 263°
2026-05-06 14:54 52.21061 8.02677 37853 ft 431 kts 263°
2026-05-06 14:54 52.20538 7.92945 37854 ft 431 kts 263°
2026-05-06 14:55 52.20006 7.83221 37851 ft 430 kts 263°
2026-05-06 14:55 52.19466 7.73504 37849 ft 430 kts 263°
2026-05-06 14:56 52.18920 7.63797 37847 ft 430 kts 262°
2026-05-06 14:56 52.18364 7.54086 37849 ft 430 kts 262°
2026-05-06 14:57 52.17806 7.44451 37854 ft 431 kts 262°
2026-05-06 14:57 52.17230 7.34676 37860 ft 433 kts 263°
2026-05-06 14:58 52.16652 7.24972 37866 ft 429 kts 262°
2026-05-06 14:58 52.16063 7.15245 37869 ft 431 kts 262°
2026-05-06 14:59 52.15468 7.05544 37872 ft 431 kts 262°
2026-05-06 14:59 52.14867 6.95880 37873 ft 431 kts 262°
2026-05-06 15:00 52.14254 6.86154 37876 ft 431 kts 262°
2026-05-06 15:00 52.13735 6.78021 37877 ft 431 kts 262°
2026-05-06 15:01 52.13111 6.68358 37881 ft 431 kts 262°
2026-05-06 15:01 52.12476 6.58648 37881 ft 431 kts 262°
2026-05-06 15:02 52.11833 6.48942 37878 ft 431 kts 262°
2026-05-06 15:02 52.11183 6.39241 37881 ft 431 kts 262°
2026-05-06 15:03 52.10524 6.29539 37879 ft 431 kts 262°
2026-05-06 15:03 52.09857 6.19845 37881 ft 431 kts 262°
2026-05-06 15:04 52.09187 6.10219 37893 ft 431 kts 262°
2026-05-06 15:04 52.08504 6.00525 37880 ft 431 kts 262°
2026-05-06 15:05 52.07814 5.90825 37886 ft 431 kts 261°
2026-05-06 15:05 52.07115 5.81135 37891 ft 432 kts 261°
2026-05-06 15:06 52.06407 5.71442 37887 ft 432 kts 261°
2026-05-06 15:06 52.05690 5.61726 37883 ft 432 kts 261°
2026-05-06 15:07 52.04966 5.52031 37887 ft 432 kts 261°
2026-05-06 15:07 52.04238 5.42393 37886 ft 433 kts 261°
2026-05-06 15:08 52.03498 5.32688 37888 ft 433 kts 261°
2026-05-06 15:08 52.02749 5.22994 37888 ft 433 kts 261°
2026-05-06 15:09 52.01991 5.13279 37890 ft 433 kts 261°
2026-05-06 15:09 52.01225 5.03572 37894 ft 433 kts 261°
2026-05-06 15:10 52.00452 4.93873 37886 ft 433 kts 261°
2026-05-06 15:10 51.99676 4.84241 37874 ft 433 kts 261°
2026-05-06 15:11 51.98887 4.74550 37889 ft 433 kts 261°
2026-05-06 15:11 51.98089 4.64857 37889 ft 433 kts 261°
2026-05-06 15:12 51.97282 4.55141 37878 ft 433 kts 261°
2026-05-06 15:12 51.96472 4.45497 37881 ft 433 kts 261°
2026-05-06 15:13 51.95649 4.35800 37883 ft 434 kts 261°
2026-05-06 15:13 51.94819 4.26114 37877 ft 434 kts 261°
2026-05-06 15:14 51.93986 4.16483 37883 ft 434 kts 261°
2026-05-06 15:14 51.93139 4.06785 37893 ft 434 kts 261°
2026-05-06 15:15 51.92285 3.97107 37912 ft 434 kts 261°
2026-05-06 15:15 51.91424 3.87444 37898 ft 433 kts 261°
2026-05-06 15:16 51.90557 3.77799 37900 ft 432 kts 260°
2026-05-06 15:16 51.89683 3.68158 37913 ft 432 kts 260°
2026-05-06 15:17 51.88805 3.58517 37911 ft 433 kts 260°
2026-05-06 15:17 51.87925 3.48924 37920 ft 433 kts 260°
2026-05-06 15:18 51.87033 3.39276 37928 ft 433 kts 260°
2026-05-06 15:18 51.86133 3.29633 37929 ft 433 kts 260°
2026-05-06 15:19 51.85229 3.20057 37931 ft 433 kts 260°
2026-05-06 15:19 51.84409 3.10401 37929 ft 433 kts 262°
2026-05-06 15:20 51.83808 3.00689 37936 ft 434 kts 263°
2026-05-06 15:20 51.83208 2.90978 37939 ft 433 kts 263°
2026-05-06 15:21 51.82575 2.81339 37945 ft 434 kts 263°
2026-05-06 15:21 51.81921 2.71635 37938 ft 434 kts 263°
2026-05-06 15:22 51.81259 2.61939 37578 ft 434 kts 263°
2026-05-06 15:22 51.80924 2.57099 37196 ft 433 kts 263°
2026-05-06 15:22 51.80585 2.52239 36497 ft 436 kts 263°
2026-05-06 15:22 51.80244 2.47362 35847 ft 436 kts 263°
2026-05-06 15:23 51.79905 2.42559 35149 ft 436 kts 263°
2026-05-06 15:23 51.79560 2.37695 34477 ft 436 kts 263°
2026-05-06 15:23 51.79213 2.32829 33785 ft 435 kts 263°
2026-05-06 15:23 51.78865 2.27963 33001 ft 435 kts 263°
2026-05-06 15:24 51.78517 2.23121 32301 ft 433 kts 263°
2026-05-06 15:24 51.78189 2.18283 31530 ft 433 kts 263°
2026-05-06 15:24 51.77907 2.13441 30791 ft 433 kts 264°
2026-05-06 15:24 51.77638 2.08629 30298 ft 427 kts 264°
2026-05-06 15:25 51.77368 2.03875 29722 ft 422 kts 263°
2026-05-06 15:25 51.77095 1.99184 29185 ft 416 kts 263°
2026-05-06 15:25 51.76820 1.94570 28674 ft 410 kts 263°
2026-05-06 15:25 51.76545 1.90020 28148 ft 404 kts 263°
2026-05-06 15:26 51.76272 1.85534 27635 ft 399 kts 263°
2026-05-06 15:26 51.76000 1.81099 27135 ft 394 kts 263°
2026-05-06 15:26 51.75733 1.76780 26639 ft 389 kts 263°
2026-05-06 15:26 51.75464 1.72452 26144 ft 385 kts 263°
2026-05-06 15:27 51.75197 1.68168 25651 ft 381 kts 263°
2026-05-06 15:27 51.74930 1.63924 25187 ft 377 kts 264°
2026-05-06 15:27 51.74662 1.59677 25006 ft 389 kts 264°
2026-05-06 15:27 51.74387 1.55355 24874 ft 381 kts 264°
2026-05-06 15:28 51.74120 1.51165 24750 ft 368 kts 264°
2026-05-06 15:28 51.73861 1.47131 24624 ft 355 kts 264°
2026-05-06 15:28 51.73613 1.43294 24498 ft 342 kts 264°
2026-05-06 15:28 51.73367 1.39502 24301 ft 339 kts 264°
2026-05-06 15:29 51.73119 1.35706 23784 ft 343 kts 264°
2026-05-06 15:29 51.72866 1.31855 23214 ft 344 kts 264°
2026-05-06 15:29 51.72613 1.28024 22724 ft 342 kts 264°
2026-05-06 15:29 51.72362 1.24226 22243 ft 339 kts 264°
2026-05-06 15:30 51.72111 1.20455 21767 ft 337 kts 264°
2026-05-06 15:30 51.71860 1.16709 21296 ft 335 kts 264°
2026-05-06 15:30 51.71610 1.12991 20838 ft 333 kts 264°
2026-05-06 15:30 51.71360 1.09285 20390 ft 331 kts 264°
2026-05-06 15:31 51.71114 1.05658 19972 ft 328 kts 264°
2026-05-06 15:31 51.70864 1.01998 19536 ft 326 kts 264°
2026-05-06 15:31 51.70615 0.98367 19112 ft 325 kts 264°
2026-05-06 15:32 51.70120 0.91177 18285 ft 321 kts 264°
2026-05-06 15:32 51.69871 0.87605 17840 ft 319 kts 264°
2026-05-06 15:32 51.69623 0.84059 17390 ft 316 kts 264°
2026-05-06 15:32 51.69380 0.80597 16969 ft 314 kts 264°
2026-05-06 15:33 51.69135 0.77115 16539 ft 312 kts 264°
2026-05-06 15:33 51.68890 0.73646 16104 ft 310 kts 264°
2026-05-06 15:33 51.68646 0.70205 15692 ft 308 kts 264°
2026-05-06 15:33 51.68402 0.66778 15290 ft 306 kts 264°
2026-05-06 15:34 51.68158 0.63374 14892 ft 304 kts 264°
2026-05-06 15:34 51.67915 0.60000 14491 ft 302 kts 264°
2026-05-06 15:34 51.67677 0.56690 14094 ft 301 kts 264°
2026-05-06 15:34 51.67434 0.53352 13708 ft 298 kts 264°
2026-05-06 15:35 51.67192 0.50035 13244 ft 298 kts 264°
2026-05-06 15:35 51.66951 0.46728 12803 ft 296 kts 264°
2026-05-06 15:35 51.66710 0.43440 12386 ft 294 kts 264°
2026-05-06 15:35 51.66471 0.40181 11971 ft 293 kts 264°
2026-05-06 15:36 51.66230 0.36927 11538 ft 292 kts 265°
2026-05-06 15:36 51.65990 0.33686 11144 ft 290 kts 265°
2026-05-06 15:36 51.65751 0.30461 10759 ft 290 kts 264°
2026-05-06 15:36 51.65514 0.27288 10362 ft 289 kts 265°
2026-05-06 15:37 51.65270 0.24047 9963 ft 287 kts 265°
2026-05-06 15:37 51.65030 0.20851 9526 ft 287 kts 265°
2026-05-06 15:37 51.64801 0.17671 9099 ft 285 kts 265°
2026-05-06 15:37 51.64609 0.14538 8683 ft 284 kts 266°
2026-05-06 15:38 51.64419 0.11383 8263 ft 283 kts 266°
2026-05-06 15:38 51.64233 0.08250 8049 ft 275 kts 266°
2026-05-06 15:38 51.64053 0.05212 7996 ft 278 kts 266°
2026-05-06 15:38 51.63867 0.02110 7992 ft 278 kts 266°
2026-05-06 15:39 51.63679 -0.00970 7993 ft 277 kts 266°
2026-05-06 15:39 51.63489 -0.04077 7992 ft 278 kts 266°
2026-05-06 15:39 51.63302 -0.07173 8034 ft 277 kts 266°
2026-05-06 15:39 51.63116 -0.10261 8040 ft 277 kts 266°
2026-05-06 15:40 51.62927 -0.13337 8041 ft 276 kts 266°
2026-05-06 15:40 51.62734 -0.16427 8043 ft 277 kts 266°
2026-05-06 15:40 51.62541 -0.19519 7917 ft 278 kts 266°
2026-05-06 15:40 51.62350 -0.22601 7665 ft 274 kts 266°
2026-05-06 15:41 51.62161 -0.25628 7407 ft 269 kts 266°
2026-05-06 15:41 51.61980 -0.28557 7166 ft 263 kts 266°
2026-05-06 15:41 51.61801 -0.31442 7053 ft 251 kts 266°
2026-05-06 15:41 51.61632 -0.34157 6990 ft 237 kts 266°
2026-05-06 15:42 51.61462 -0.36827 6997 ft 242 kts 266°
2026-05-06 15:42 51.61292 -0.39518 6993 ft 240 kts 265°
2026-05-06 15:42 51.61121 -0.42195 6996 ft 240 kts 266°
2026-05-06 15:42 51.60948 -0.44872 6993 ft 241 kts 265°
2026-05-06 15:43 51.60772 -0.47545 6992 ft 240 kts 266°
2026-05-06 15:43 51.60596 -0.50212 6988 ft 240 kts 266°
2026-05-06 15:43 51.60419 -0.52882 6995 ft 240 kts 265°
2026-05-06 15:43 51.60245 -0.55526 6996 ft 241 kts 266°
2026-05-06 15:44 51.60064 -0.58199 6991 ft 239 kts 265°
2026-05-06 15:44 51.59879 -0.60861 6990 ft 240 kts 266°
2026-05-06 15:44 51.59691 -0.63530 6990 ft 239 kts 265°
2026-05-06 15:44 51.59565 -0.65290 6986 ft 239 kts 265°
2026-05-06 15:45 51.59374 -0.67965 6802 ft 241 kts 265°
2026-05-06 15:45 51.59180 -0.70660 6484 ft 242 kts 265°
2026-05-06 15:45 51.58988 -0.73350 6148 ft 242 kts 265°
2026-05-06 15:45 51.58793 -0.76038 5800 ft 242 kts 265°
2026-05-06 15:46 51.58596 -0.78727 5465 ft 242 kts 265°
2026-05-06 15:46 51.58395 -0.81423 5129 ft 243 kts 265°
2026-05-06 15:46 51.58126 -0.84071 4786 ft 244 kts 253°
2026-05-06 15:46 51.57208 -0.86354 4449 ft 247 kts 222°
2026-05-06 15:47 51.55684 -0.87602 4118 ft 248 kts 190°
2026-05-06 15:47 51.53987 -0.87770 3966 ft 241 kts 181°
2026-05-06 15:47 51.52331 -0.87822 3819 ft 234 kts 180°
2026-05-06 15:47 51.50732 -0.87868 3690 ft 226 kts 180°
2026-05-06 15:48 51.49172 -0.87909 3529 ft 225 kts 181°
2026-05-06 15:48 51.47596 -0.87848 3389 ft 228 kts 165°
2026-05-06 15:48 51.46296 -0.86544 3267 ft 220 kts 121°
2026-05-06 15:48 51.45889 -0.84288 3149 ft 211 kts 78°
2026-05-06 15:49 51.46259 -0.82045 3022 ft 206 kts 68°
2026-05-06 15:49 51.46701 -0.79935 2997 ft 200 kts 68°
2026-05-06 15:49 51.47132 -0.77799 2992 ft 201 kts 69°
2026-05-06 15:49 51.47479 -0.75618 2989 ft 202 kts 77°
2026-05-06 15:50 51.47628 -0.73424 2996 ft 192 kts 83°
2026-05-06 15:50 51.47664 -0.71353 2944 ft 184 kts 85°
2026-05-06 15:50 51.47674 -0.69293 2708 ft 184 kts 85°
2026-05-06 15:50 51.47682 -0.67251 2465 ft 181 kts 86°
2026-05-06 15:51 51.47688 -0.65247 2215 ft 176 kts 85°
2026-05-06 15:51 51.47696 -0.63326 1970 ft 168 kts 86°
2026-05-06 15:51 51.47700 -0.61519 1756 ft 160 kts 85°
2026-05-06 15:51 51.47706 -0.59800 1542 ft 146 kts 85°
2026-05-06 15:52 51.47710 -0.58267 1346 ft 132 kts 85°
2026-05-06 15:52 51.47719 -0.56754 1157 ft 135 kts 84°
2026-05-06 15:52 51.47724 -0.55280 965 ft 133 kts 85°
2026-05-06 15:52 51.47727 -0.53792 806 ft 132 kts 84°
2026-05-06 15:53 51.47731 -0.52308 628 ft 134 kts 85°
2026-05-06 15:53 51.47746 -0.50820 380 ft 132 kts 84°
2026-05-06 15:53 51.47748 -0.49359 225 ft 131 kts 85°
2026-05-06 15:53 51.47752 -0.47917 97 ft 129 kts 85°
2026-05-06 15:54 51.47762 -0.46724 89 ft 68 kts 90°
2026-05-06 15:54 51.47759 -0.46287 89 ft 31 kts 96°
2026-05-06 15:54 51.47681 -0.46123 87 ft 12 kts 143°
2026-05-06 15:54 51.47610 -0.46062 86 ft 7 kts 192°
2026-05-06 15:55 51.47601 -0.46091 88 ft 4 kts 255°
2026-05-06 15:55 51.47594 -0.46160 88 ft 9 kts 268°
2026-05-06 15:55 51.47594 -0.46288 90 ft 13 kts 269°
2026-05-06 15:55 51.47593 -0.46455 87 ft 16 kts 270°
2026-05-06 15:56 51.47593 -0.46654 89 ft 19 kts 268°
2026-05-06 15:56 51.47583 -0.46875 89 ft 20 kts 268°
2026-05-06 15:56 51.47583 -0.47108 90 ft 22 kts 270°
2026-05-06 15:56 51.47582 -0.47371 90 ft 24 kts 269°
2026-05-06 15:57 51.47579 -0.47647 88 ft 26 kts 270°
2026-05-06 15:57 51.47579 -0.47945 90 ft 27 kts 270°
2026-05-06 15:57 51.47578 -0.48245 87 ft 26 kts 270°
2026-05-06 15:57 51.47543 -0.48470 88 ft 17 kts 189°
2026-05-06 15:58 51.47411 -0.48478 86 ft 20 kts 180°
2026-05-06 15:58 51.47259 -0.48476 86 ft 23 kts 180°
2026-05-06 15:58 51.47091 -0.48475 86 ft 24 kts 179°
2026-05-06 15:58 51.46937 -0.48471 88 ft 16 kts 179°
2026-05-06 15:59 51.46878 -0.48537 86 ft 12 kts 260°
2026-05-06 15:59 51.46887 -0.48646 87 ft 4 kts 331°
2026-05-06 15:59 51.46921 -0.48649 90 ft 6 kts
2026-05-06 15:59 51.46927 -0.48649 90 ft 0 kts 359°
2026-05-06 16:00 51.46930 -0.48649 90 ft 0 kts 359°